Location: Moscow
(55.7500°N, 37.5830°E)
Time: 04:26:10
(UTC+03:00)

Kosmos-337 - Pass Details

Date: 07 July 2022
Orbit: 1467 x 1552 km, 74.0° (Epoch: 13 August)

Event Time Altitude Azimuth Distance (km) Brightness Sun altitude
Rises 22:22:43 0° 320° (NW) 4,735 ? -6.9°
Reaches altitude 10° 22:26:03 10° 329° (NNW) 3,751 ? -7.1°
Maximum altitude 22:34:29 38° 35° (NE) 2,215 ? -7.7°
Drops below altitude 10° 22:42:50 10° 102° (ESE) 3,716 ? -8.2°
Sets 22:46:06 0° 110° (ESE) 4,685 ? -8.4°
